This is the latest recevied weather packets stored in our database for station/object DC0VZ-6. If no packets are shown the sender has not sent any weather packets the latest 10 day(s).
| Time | Temp. | Humidity | Pressure | Rain* | Wind** | Luminosity | Snow |
|---|---|---|---|---|---|---|---|
| 1778060174 | 17.78° C | 58% | 974.5 hPa | 0 mm | - | - | - |
| 1778059574 | 17.22° C | 57% | 974.5 hPa | 0 mm | - | - | - |
| 1778058974 | 16.11° C | 57% | 974.4 hPa | 0 mm | - | - | - |
| 1778058374 | 15.56° C | 58% | 974.4 hPa | 0 mm | - | - | - |
| 1778057774 | 15° C | 58% | 974.1 hPa | 0 mm | - | - | - |
| 1778057174 | 14.44° C | 58% | 974.1 hPa | 0 mm | - | - | - |
| 1778056574 | 14.44° C | 58% | 973.9 hPa | 0 mm | - | - | - |
| 1778055974 | 14.44° C | 58% | 973.9 hPa | 0 mm | - | - | - |
| 1778055373 | 13.89° C | 58% | 973.9 hPa | 0 mm | - | - | - |
| 1778054773 | 13.89° C | 58% | 973.9 hPa | 0 mm | - | - | - |
| 1778054173 | 13.89° C | 58% | 973.9 hPa | 0 mm | - | - | - |
| 1778053573 | 13.89° C | 58% | 973.9 hPa | 0 mm | - | - | - |
| 1778052973 | 13.89° C | 57% | 973.8 hPa | 0 mm | - | - | - |
| 1778052373 | 13.89° C | 57% | 973.8 hPa | 0 mm | - | - | - |
| 1778051773 | 13.89° C | 57% | 973.6 hPa | 0 mm | - | - | - |
| 1778051173 | 13.33° C | 57% | 973.6 hPa | 0 mm | - | - | - |
| 1778050573 | 13.33° C | 57% | 973.5 hPa | 0 mm | - | - | - |
| 1778049973 | 12.78° C | 58% | 973.5 hPa | 0 mm | - | - | - |
| 1778049373 | 12.78° C | 58% | 973.4 hPa | 0 mm | - | - | - |
| 1778048772 | 12.78° C | 58% | 973.4 hPa | 0 mm | - | - | - |
| 1778048172 | 12.22° C | 58% | 973.5 hPa | 0 mm | - | - | - |
| 1778047572 | 12.22° C | 57% | 973.5 hPa | 0 mm | - | - | - |
| 1778046973 | 12.22° C | 57% | 973.5 hPa | 0 mm | - | - | - |
| 1778046372 | 12.22° C | 57% | 973.5 hPa | 0 mm | - | - | - |
| 1778045773 | 12.22° C | 57% | 973.2 hPa | 0 mm | - | - | - |
* Rain latest hour (hover to see other rain measurements)
** Current wind speed in m/s (hover to see current wind gust speed)